Flag Weather past 2 weeks in Brandon, Manitoba, Canada

Now
32 °F

Overcast.


Feels Like: 21 °F
Forecast: 20 / 36 °F
Wind: 17 mph from North

Location: Brandon

Current Time: Oct 30, 2014 at 12:41:50 PM

Latest Report: Oct 30, 2014 at 12:00 PM


Visibility: 15 mi

Pressure: 30.51 "Hg

Humidity: 60%

Dew point: 19 °F

Location of BrandonLocation

Historic Weather in Brandon — Graph

°F

Brandon temperature yesterday

Maximum temperature yesterday: 39 °F (at 3:00 PM)
Minimum temperature yesterday: 28 °F (at 3:00 AM)
Average temperature yesterday: 33 °F

Past Weeks' High & Low Weather Summary

 TemperatureHumidityPressure
High68 °F (Oct 21, 4:00 PM)100% (Oct 20, 6:46 AM)30.48 "Hg (Oct 20, 6:46 AM)
Low27 °F (Oct 30, 1:00 AM)29% (Oct 25, 3:00 PM)29.47 "Hg (Oct 26, 7:00 PM)
Average44 °F72%29.89 "Hg
* Reported Oct 15 11:00 AM — Oct 30 11:00 AM, Brandon, Weather by CustomWeather, © 2014

Note: Actual official high and low records may vary slightly from our data, if they occured in-between our weather recording intervals... More about our weather records

Advertising

Brandon weather history for previous 24 hours

 ConditionsComfort  
Time TempWeatherWind HumidityBarometerVisibility
11:00 AM
Oct 30
34 °FPartly sunny.18 mph56%30.48 "Hg15 mi
10:00 AM30 °FPartly sunny.15 mph75%30.46 "Hg15 mi
9:00 AM30 °FPassing clouds.13 mph75%30.42 "Hg15 mi
8:00 AM30 °FOvercast.16 mph80%30.37 "Hg15 mi
7:00 AM32 °FOvercast.9 mph80%30.33 "Hg15 mi
6:00 AM32 °FMostly cloudy.8 mph80%30.30 "Hg15 mi
5:00 AM32 °FMostly cloudy.13 mph80%30.26 "Hg15 mi
4:00 AM32 °FMostly cloudy.10 mph87%30.23 "Hg15 mi
3:00 AM32 °FMostly cloudy.8 mph87%30.19 "Hg15 mi
2:00 AM28 °FPassing clouds.8 mph93%30.17 "Hg15 mi
1:00 AM27 °FPassing clouds.8 mph93%30.14 "Hg15 mi
12:00 AM28 °FPassing clouds.9 mph93%30.13 "Hg15 mi
11:00 PM
Oct 29
32 °FPassing clouds.13 mph80%30.09 "Hg15 mi
10:00 PM32 °FPassing clouds.13 mph87%30.08 "Hg15 mi
9:00 PM36 °FPassing clouds.12 mph75%30.06 "Hg15 mi
8:00 PM36 °FPassing clouds.10 mph75%30.04 "Hg15 mi
7:00 PM37 °FPartly sunny.8 mph70%30.04 "Hg15 mi
6:00 PM39 °FPartly sunny.7 mph70%30.02 "Hg15 mi
5:00 PM37 °FPartly sunny.8 mph70%30.01 "Hg15 mi
4:00 PM37 °FScattered clouds.10 mph70%30.01 "Hg15 mi
3:00 PM39 °FPartly sunny.10 mph65%30.01 "Hg15 mi
2:00 PM37 °FMore clouds than sun.9 mph70%30.05 "Hg15 mi
1:00 PM36 °FOvercast.9 mph75%30.06 "Hg15 mi
12:00 PM34 °FOvercast.9 mph75%30.08 "Hg15 mi
Weather by CustomWeather, © 2014

See weather overviewHow to use our weather pages